N2406 EKBI-EKYT

Flight info

Callsign N2406
Flight time 0h 48m
Altitude 3500
Route VFR VIA KARLSKOV AND GIVE
Aircraft BE36/L-VGD/A

Departure

Time 2026-04-30 19:58
Airport Billund Airport (EKBI)

Arrival

Time 2026-04-30 20:47
Airport Aalborg Airport (EKYT)
Time Latitude Longitude Altitude Speed Heading
2026-04-30 19:35 55.74350 9.14867 222 ft 0 kts 354°
2026-04-30 19:52 55.74353 9.14868 222 ft 3 kts 19°
2026-04-30 19:52 55.74372 9.14953 222 ft 6 kts 89°
2026-04-30 19:52 55.74320 9.14989 223 ft 12 kts 176°
2026-04-30 19:53 55.74241 9.15008 223 ft 17 kts 164°
2026-04-30 19:53 55.74209 9.15268 224 ft 30 kts 86°
2026-04-30 19:53 55.74221 9.15700 227 ft 40 kts 87°
2026-04-30 19:53 55.74236 9.16202 231 ft 43 kts 86°
2026-04-30 19:54 55.74253 9.16771 234 ft 49 kts 88°
2026-04-30 19:54 55.74272 9.17362 238 ft 50 kts 87°
2026-04-30 19:54 55.74288 9.17846 241 ft 25 kts 86°
2026-04-30 19:54 55.74264 9.18089 243 ft 18 kts 131°
2026-04-30 19:55 55.74218 9.18133 243 ft 0 kts 182°
2026-04-30 19:56 55.74200 9.18132 243 ft 9 kts 180°
2026-04-30 19:56 55.74130 9.18072 242 ft 12 kts 257°
2026-04-30 19:57 55.74127 9.18028 242 ft 0 kts 264°
2026-04-30 19:57 55.74126 9.18015 242 ft 9 kts 265°
2026-04-30 19:57 55.74107 9.17488 237 ft 73 kts 267°
2026-04-30 19:57 55.74069 9.16327 251 ft 111 kts 266°
2026-04-30 19:58 55.74012 9.14892 444 ft 121 kts 268°
2026-04-30 19:58 55.74138 9.13275 454 ft 142 kts 299°
2026-04-30 19:58 55.74913 9.12257 702 ft 144 kts 345°
2026-04-30 19:58 55.75879 9.12551 952 ft 146 kts 31°
2026-04-30 19:59 55.76553 9.13891 1213 ft 147 kts 54°
2026-04-30 19:59 55.77162 9.15330 1441 ft 147 kts 45°
2026-04-30 19:59 55.78955 9.17459 1486 ft 163 kts 16°
2026-04-30 20:00 55.80080 9.17766 1490 ft 165 kts
2026-04-30 20:00 55.81239 9.17827 1491 ft 168 kts 359°
2026-04-30 20:00 55.82398 9.17842 1622 ft 162 kts 358°
2026-04-30 20:00 55.83494 9.17852 1880 ft 154 kts
2026-04-30 20:01 55.85526 9.18772 2398 ft 149 kts 16°
2026-04-30 20:01 55.86508 9.19347 2650 ft 148 kts 16°
2026-04-30 20:01 55.87484 9.19925 2907 ft 148 kts 17°
2026-04-30 20:02 55.89428 9.21082 3412 ft 147 kts 18°
2026-04-30 20:02 55.90438 9.21685 3473 ft 159 kts 18°
2026-04-30 20:03 55.92615 9.22992 3497 ft 170 kts 18°
2026-04-30 20:03 55.93741 9.23666 3501 ft 172 kts 18°
2026-04-30 20:03 55.94883 9.24348 3498 ft 174 kts 18°
2026-04-30 20:03 55.96002 9.25158 3501 ft 175 kts 34°
2026-04-30 20:04 55.96662 9.26926 3498 ft 176 kts 78°
2026-04-30 20:04 55.96496 9.29047 3499 ft 175 kts 113°
2026-04-30 20:04 55.95940 9.30980 3503 ft 175 kts 120°
2026-04-30 20:05 55.94713 9.34749 3501 ft 175 kts 121°
2026-04-30 20:05 55.94094 9.36623 3500 ft 175 kts 122°
2026-04-30 20:05 55.92854 9.40364 3498 ft 175 kts 122°
2026-04-30 20:06 55.92234 9.42230 3497 ft 175 kts 122°
2026-04-30 20:06 55.91615 9.44095 3499 ft 175 kts 121°
2026-04-30 20:06 55.90995 9.45958 3497 ft 175 kts 122°
2026-04-30 20:06 55.90376 9.47821 3497 ft 175 kts 122°
2026-04-30 20:07 55.89803 9.49732 3498 ft 176 kts 114°
2026-04-30 20:07 55.89486 9.51831 3497 ft 176 kts 98°
2026-04-30 20:07 55.89585 9.56175 3496 ft 176 kts 81°
2026-04-30 20:08 55.89816 9.58319 3495 ft 176 kts 78°
2026-04-30 20:08 55.90089 9.60446 3497 ft 176 kts 77°
2026-04-30 20:08 55.90380 9.62570 3497 ft 176 kts 77°
2026-04-30 20:08 55.90678 9.64690 3500 ft 176 kts 75°
2026-04-30 20:09 55.90977 9.66798 3499 ft 175 kts 75°
2026-04-30 20:09 55.91274 9.68904 3498 ft 175 kts 76°
2026-04-30 20:09 55.91866 9.73108 3498 ft 175 kts 76°
2026-04-30 20:10 55.92457 9.77316 3493 ft 175 kts 75°
2026-04-30 20:10 55.92814 9.79389 3493 ft 175 kts 64°
2026-04-30 20:10 55.93551 9.81086 3490 ft 174 kts 39°
2026-04-30 20:11 55.95596 9.83344 3491 ft 173 kts 31°
2026-04-30 20:11 55.96613 9.84490 3497 ft 173 kts 31°
2026-04-30 20:11 55.97634 9.85633 3497 ft 173 kts 31°
2026-04-30 20:12 55.99685 9.87909 3497 ft 174 kts 31°
2026-04-30 20:12 56.00713 9.89046 3493 ft 174 kts 30°
2026-04-30 20:12 56.01740 9.90183 3494 ft 174 kts 30°
2026-04-30 20:13 56.02766 9.91318 3494 ft 174 kts 31°
2026-04-30 20:13 56.03793 9.92455 3494 ft 173 kts 31°
2026-04-30 20:13 56.04818 9.93592 3492 ft 173 kts 30°
2026-04-30 20:13 56.05844 9.94729 3495 ft 174 kts 31°
2026-04-30 20:14 56.06871 9.95867 3495 ft 174 kts 31°
2026-04-30 20:14 56.07899 9.97008 3495 ft 174 kts 30°
2026-04-30 20:14 56.08925 9.98148 3495 ft 174 kts 30°
2026-04-30 20:14 56.09995 9.99132 3494 ft 173 kts 16°
2026-04-30 20:15 56.11177 9.99276 3494 ft 171 kts 352°
2026-04-30 20:15 56.12359 9.99012 3492 ft 171 kts 354°
2026-04-30 20:15 56.13549 9.98840 3493 ft 172 kts 355°
2026-04-30 20:15 56.14740 9.98690 3494 ft 172 kts 355°
2026-04-30 20:16 56.15932 9.98540 3496 ft 172 kts 355°
2026-04-30 20:16 56.17123 9.98382 3494 ft 172 kts 355°
2026-04-30 20:16 56.18316 9.98217 3493 ft 172 kts 354°
2026-04-30 20:16 56.19509 9.98045 3489 ft 172 kts 354°
2026-04-30 20:17 56.20704 9.97869 3490 ft 172 kts 354°
2026-04-30 20:17 56.21896 9.97695 3488 ft 172 kts 354°
2026-04-30 20:17 56.23088 9.97522 3488 ft 172 kts 354°
2026-04-30 20:17 56.24280 9.97347 3491 ft 172 kts 354°
2026-04-30 20:18 56.25473 9.97171 3492 ft 172 kts 354°
2026-04-30 20:18 56.26669 9.96995 3492 ft 172 kts 354°
2026-04-30 20:18 56.27865 9.96817 3494 ft 173 kts 354°
2026-04-30 20:18 56.29061 9.96639 3493 ft 173 kts 354°
2026-04-30 20:19 56.30257 9.96460 3492 ft 172 kts 354°
2026-04-30 20:19 56.31066 9.96339 3490 ft 172 kts 353°
2026-04-30 20:19 56.32648 9.96105 3488 ft 172 kts 354°
2026-04-30 20:19 56.33845 9.95928 3484 ft 172 kts 354°
2026-04-30 20:20 56.35038 9.95750 3484 ft 172 kts 353°
2026-04-30 20:20 56.36229 9.95573 3483 ft 172 kts 354°
2026-04-30 20:20 56.37421 9.95395 3485 ft 172 kts 354°
2026-04-30 20:20 56.38612 9.95218 3486 ft 172 kts 354°
2026-04-30 20:21 56.39804 9.95041 3487 ft 172 kts 354°
2026-04-30 20:21 56.40996 9.94863 3488 ft 172 kts 354°
2026-04-30 20:21 56.42188 9.94683 3489 ft 172 kts 353°
2026-04-30 20:21 56.43380 9.94505 3494 ft 171 kts 354°
2026-04-30 20:22 56.44568 9.94327 3494 ft 171 kts 353°
2026-04-30 20:22 56.45758 9.94150 3493 ft 172 kts 354°
2026-04-30 20:22 56.46952 9.93972 3497 ft 172 kts 353°
2026-04-30 20:22 56.48147 9.93793 3491 ft 172 kts 354°
2026-04-30 20:23 56.49340 9.93615 3485 ft 172 kts 353°
2026-04-30 20:23 56.50530 9.93436 3485 ft 172 kts 354°
2026-04-30 20:23 56.51720 9.93255 3486 ft 172 kts 353°
2026-04-30 20:23 56.52909 9.93073 3485 ft 172 kts 354°
2026-04-30 20:24 56.54101 9.92896 3486 ft 172 kts 353°
2026-04-30 20:24 56.55291 9.92719 3484 ft 172 kts 353°
2026-04-30 20:24 56.56483 9.92541 3491 ft 172 kts 354°
2026-04-30 20:24 56.57676 9.92360 3488 ft 172 kts 353°
2026-04-30 20:25 56.60062 9.92000 3484 ft 172 kts 354°
2026-04-30 20:25 56.61252 9.91821 3482 ft 171 kts 353°
2026-04-30 20:26 56.63626 9.91462 3480 ft 171 kts 354°
2026-04-30 20:26 56.66004 9.91108 3487 ft 172 kts 353°
2026-04-30 20:26 56.67200 9.90927 3486 ft 173 kts 353°
2026-04-30 20:27 56.69609 9.90561 3487 ft 174 kts 353°
2026-04-30 20:27 56.72020 9.90194 3490 ft 174 kts 352°
2026-04-30 20:28 56.74027 9.89891 3483 ft 174 kts 353°
2026-04-30 20:28 56.76438 9.89524 3478 ft 173 kts 352°
2026-04-30 20:29 56.78840 9.89159 3483 ft 174 kts 353°
2026-04-30 20:30 56.82457 9.88607 3478 ft 174 kts 352°
2026-04-30 20:30 56.86063 9.88057 3476 ft 173 kts 353°
2026-04-30 20:31 56.89631 9.87458 3474 ft 175 kts 12°
2026-04-30 20:32 56.92847 9.90778 3473 ft 178 kts 30°
2026-04-30 20:32 56.94928 9.93248 3478 ft 179 kts 32°
2026-04-30 20:33 56.95982 9.94516 3474 ft 179 kts 31°
2026-04-30 20:33 56.98062 9.97022 3472 ft 179 kts 31°
2026-04-30 20:33 56.99119 9.98314 3350 ft 185 kts 31°
2026-04-30 20:34 57.01288 10.00985 3103 ft 189 kts 31°
2026-04-30 20:34 57.03066 10.04437 2848 ft 194 kts 60°
2026-04-30 20:35 57.03667 10.06703 2720 ft 195 kts 64°
2026-04-30 20:35 57.04231 10.08957 2593 ft 194 kts 64°
2026-04-30 20:35 57.05263 10.13318 2343 ft 164 kts 65°
2026-04-30 20:36 57.05671 10.15162 2210 ft 149 kts 65°
2026-04-30 20:36 57.06049 10.16873 2094 ft 140 kts 64°
2026-04-30 20:36 57.06730 10.20096 2010 ft 131 kts 64°
2026-04-30 20:37 57.07054 10.21654 2001 ft 130 kts 64°
2026-04-30 20:37 57.07571 10.22873 1993 ft 118 kts 25°
2026-04-30 20:37 57.08279 10.23593 1992 ft 114 kts 12°
2026-04-30 20:37 57.09022 10.24093 1995 ft 114 kts 12°
2026-04-30 20:38 57.09771 10.24563 1995 ft 114 kts 11°
2026-04-30 20:38 57.10531 10.24949 1998 ft 111 kts 358°
2026-04-30 20:38 57.11296 10.25005 1997 ft 109 kts 351°
2026-04-30 20:39 57.12400 10.23803 2001 ft 99 kts 286°
2026-04-30 20:39 57.12486 10.22560 2005 ft 100 kts 258°
2026-04-30 20:39 57.12284 10.21311 2016 ft 100 kts 258°
2026-04-30 20:40 57.11961 10.18926 2025 ft 93 kts 260°
2026-04-30 20:40 57.11809 10.17757 2024 ft 95 kts 261°
2026-04-30 20:40 57.11662 10.16568 2028 ft 95 kts 261°
2026-04-30 20:41 57.11376 10.14194 2030 ft 95 kts 262°
2026-04-30 20:41 57.11247 10.13002 2027 ft 95 kts 264°
2026-04-30 20:41 57.11145 10.11781 2033 ft 95 kts 266°
2026-04-30 20:41 57.11072 10.10566 2034 ft 95 kts 268°
2026-04-30 20:42 57.11019 10.09364 2039 ft 96 kts 268°
2026-04-30 20:42 57.10968 10.08161 2037 ft 94 kts 267°
2026-04-30 20:42 57.10822 10.05769 2017 ft 95 kts 265°
2026-04-30 20:43 57.10736 10.04518 1863 ft 101 kts 265°
2026-04-30 20:43 57.10648 10.03255 1717 ft 101 kts 265°
2026-04-30 20:43 57.10563 10.01956 1568 ft 100 kts 265°
2026-04-30 20:44 57.10407 9.99466 1304 ft 97 kts 265°
2026-04-30 20:44 57.10326 9.98214 1177 ft 97 kts 265°
2026-04-30 20:44 57.10170 9.95834 921 ft 93 kts 265°
2026-04-30 20:45 57.10022 9.93412 668 ft 98 kts 263°
2026-04-30 20:45 57.09942 9.92161 525 ft 99 kts 263°
2026-04-30 20:45 57.09859 9.90874 381 ft 101 kts 262°
2026-04-30 20:46 57.09618 9.87186 17 ft 81 kts 261°
2026-04-30 20:46 57.09561 9.86378 14 ft 51 kts 263°
2026-04-30 20:47 57.09439 9.85756 12 ft 20 kts 146°
2026-04-30 20:47 57.09309 9.85942 12 ft 27 kts 141°
2026-04-30 20:48 57.08948 9.86448 12 ft 37 kts 142°
2026-04-30 20:48 57.08742 9.86754 13 ft 35 kts 139°
2026-04-30 20:48 57.08667 9.86926 13 ft 12 kts 24°
2026-04-30 20:48 57.08703 9.86951 13 ft 0 kts 56°